| time (UTC) | temp F | wind direction | speed MPH | gust MPH | rain 1hr in | rain 24hr in | rain mn in | humidity % | barometer mb |
| 20260904145549 | 84 | 1 | 2.0 | 7.0 | 0.00 | 0.18 | 0.18 | 75 | 1007.2 |
| 20260904145047 | 84 | 282 | 1.0 | 3.0 | 0.00 | 0.18 | 0.18 | 75 | 1007.2 |
| 20260904144547 | 83 | 60 | 0.0 | 4.0 | 0.00 | 0.18 | 0.18 | 77 | 1007.3 |
| 20260904144045 | 82 | 233 | 1.0 | 4.0 | 0.00 | 0.18 | 0.18 | 78 | 1007.5 |
| 20260904143548 | 82 | 5 | 1.0 | 5.0 | 0.00 | 0.18 | 0.18 | 79 | 1007.5 |
| 20260904143049 | 82 | 330 | 1.0 | 5.0 | 0.00 | 0.18 | 0.18 | 78 | 1007.4 |
| 20260904142542 | 82 | 340 | 0.0 | 3.0 | 0.00 | 0.18 | 0.18 | 79 | 1007.3 |
| 20260904142041 | 81 | 24 | 0.0 | 4.0 | 0.00 | 0.18 | 0.18 | 82 | 1007.4 |
| 20260904141543 | 81 | 50 | 1.0 | 4.0 | 0.00 | 0.18 | 0.18 | 81 | 1007.4 |
| 20260904141042 | 80 | 291 | 0.0 | 3.0 | 0.00 | 0.18 | 0.18 | 81 | 1007.4 |
| 20260904140542 | 80 | 339 | 0.0 | 4.0 | 0.00 | 0.18 | 0.18 | 82 | 1007.4 |
| 20260904140046 | 80 | 62 | 0.0 | 5.0 | 0.00 | 0.18 | 0.18 | 83 | 1007.2 |
| 20260904135542 | 79 | 112 | 2.0 | 5.0 | 0.00 | 0.18 | 0.18 | 83 | 1007.3 |
| 20260904135044 | 79 | 359 | 0.0 | 5.0 | 0.00 | 0.18 | 0.18 | 82 | 1007.3 |
| 20260904134546 | 80 | 1 | 0.0 | 2.0 | 0.00 | 0.18 | 0.18 | 84 | 1007.2 |
| 20260904134045 | 79 | 271 | 0.0 | 3.0 | 0.00 | 0.18 | 0.18 | 85 | 1007.3 |
| 20260904133541 | 78 | 356 | 0.0 | 4.0 | 0.00 | 0.18 | 0.18 | 87 | 1007.5 |
| 20260904133041 | 77 | 356 | 0.0 | 4.0 | 0.00 | 0.18 | 0.18 | 87 | 1007.5 |
| 20260904132541 | 77 | 67 | 2.0 | 7.0 | 0.00 | 0.18 | 0.18 | 88 | 1007.5 |
| 20260904132041 | 76 | 91 | 1.0 | 7.0 | 0.00 | 0.18 | 0.18 | 88 | 1007.4 |
| 20260904131540 | 76 | 45 | 1.0 | 6.0 | 0.00 | 0.18 | 0.18 | 90 | 1007.4 |
| 20260904131040 | 76 | 193 | 2.0 | 7.0 | 0.00 | 0.18 | 0.18 | 91 | 1007.4 |
| 20260904130540 | 75 | 352 | 3.0 | 7.0 | 0.00 | 0.18 | 0.18 | 91 | 1007.4 |
| 20260904130040 | 75 | 353 | 3.0 | 7.0 | 0.00 | 0.18 | 0.18 | 91 | 1007.4 |
| 20260904125540 | 75 | 76 | 2.0 | 6.0 | 0.00 | 0.18 | 0.18 | 92 | 1007.5 |
| 20260904125039 | 75 | 308 | 1.0 | 6.0 | 0.00 | 0.18 | 0.18 | 92 | 1007.5 |
| 20260904124539 | 75 | 355 | 2.0 | 7.0 | 0.00 | 0.18 | 0.18 | 93 | 1007.2 |
| 20260904124040 | 74 | 321 | 2.0 | 7.0 | 0.00 | 0.18 | 0.18 | 93 | 1007.2 |
| 20260904123538 | 74 | 44 | 2.0 | 6.0 | 0.00 | 0.18 | 0.18 | 94 | 1007.1 |
| 20260904123038 | 74 | 30 | 1.0 | 6.0 | 0.00 | 0.18 | 0.18 | 94 | 1007.0 |
| 20260904122538 | 74 | 72 | 1.0 | 6.0 | 0.00 | 0.18 | 0.18 | 95 | 1006.9 |
| 20260904122038 | 74 | 100 | 1.0 | 6.0 | 0.00 | 0.18 | 0.18 | 96 | 1007.0 |
| 20260904121538 | 73 | 19 | 0.0 | 2.0 | 0.00 | 0.18 | 0.18 | 96 | 1006.8 |
| 20260904121042 | 73 | 245 | 0.0 | 1.0 | 0.00 | 0.18 | 0.18 | 95 | 1006.7 |
| 20260904120538 | 73 | 219 | 0.0 | 1.0 | 0.00 | 0.18 | 0.18 | 96 | 1006.8 |
| 20260904120046 | 72 | 219 | 0.0 | 1.0 | 0.00 | 0.18 | 0.18 | 96 | 1006.7 |
| 20260904115537 | 72 | 219 | 0.0 | 1.0 | 0.00 | 0.18 | 0.18 | 96 | 1006.6 |
| 20260904115038 | 72 | 219 | 0.0 | 0.0 | 0.00 | 0.18 | 0.18 | 96 | 1006.6 |
| 20260904114537 | 71 | 219 | 0.0 | 1.0 | 0.00 | 0.18 | 0.18 | 96 | 1006.6 |
| 20260904114037 | 71 | 219 | 0.0 | 1.0 | 0.00 | 0.18 | 0.18 | 96 | 1006.8 |
| 20260904113537 | 71 | 219 | 0.0 | 1.0 | 0.00 | 0.18 | 0.18 | 96 | 1006.6 |
| 20260904113042 | 71 | 219 | 0.0 | 1.0 | 0.00 | 0.18 | 0.18 | 96 | 1006.7 |
| 20260904112536 | 71 | 219 | 0.0 | 1.0 | 0.00 | 0.18 | 0.18 | 96 | 1006.7 |
| 20260904112035 | 70 | 219 | 0.0 | 1.0 | 0.00 | 0.18 | 0.18 | 96 | 1006.6 |
| 20260904111536 | 70 | 219 | 0.0 | 1.0 | 0.00 | 0.18 | 0.18 | 95 | 1006.7 |
| 20260904111040 | 70 | 219 | 0.0 | 1.0 | 0.00 | 0.18 | 0.18 | 95 | 1006.5 |
| 20260904110535 | 70 | 219 | 0.0 | 0.0 | 0.00 | 0.18 | 0.18 | 95 | 1006.5 |
| 20260904110034 | 70 | 219 | 0.0 | 1.0 | 0.00 | 0.18 | 0.18 | 95 | 1006.5 |
| 20260904105536 | 70 | 219 | 0.0 | 1.0 | 0.00 | 0.18 | 0.18 | 95 | 1006.4 |
| 20260904105034 | 70 | 219 | 0.0 | 0.0 | 0.00 | 0.18 | 0.18 | 95 | 1006.3 |
| 20260904104548 | 70 | 219 | 0.0 | 0.0 | 0.00 | 0.18 | 0.18 | 95 | 1006.4 |
| 20260904104036 | 70 | 219 | 0.0 | 1.0 | 0.00 | 0.18 | 0.18 | 95 | 1006.4 |
| 20260904103534 | 70 | 219 | 0.0 | 1.0 | 0.00 | 0.18 | 0.18 | 95 | 1006.4 |
| 20260904103032 | 70 | 219 | 0.0 | 0.0 | 0.00 | 0.18 | 0.18 | 95 | 1006.2 |
| 20260904102532 | 70 | 219 | 0.0 | 1.0 | 0.00 | 0.18 | 0.18 | 95 | 1006.3 |
| 20260904102035 | 70 | 219 | 0.0 | 0.0 | 0.00 | 0.18 | 0.18 | 95 | 1006.2 |
| 20260904101531 | 70 | 219 | 0.0 | 0.0 | 0.00 | 0.18 | 0.18 | 95 | 1006.1 |
| 20260904101032 | 70 | 219 | 0.0 | 0.0 | 0.00 | 0.18 | 0.18 | 95 | 1006.1 |
| 20260904100530 | 70 | 219 | 0.0 | 1.0 | 0.00 | 0.18 | 0.18 | 95 | 1006.1 |
| 20260904100033 | 70 | 219 | 0.0 | 1.0 | 0.00 | 0.18 | 0.18 | 95 | 1006.0 |
| 20260904095530 | 70 | 219 | 0.0 | 1.0 | 0.00 | 0.18 | 0.18 | 95 | 1005.9 |
| 20260904095030 | 70 | 220 | 0.0 | 0.0 | 0.00 | 0.18 | 0.18 | 95 | 1006.1 |
| 20260904094533 | 70 | 220 | 0.0 | 1.0 | 0.00 | 0.18 | 0.18 | 95 | 1005.9 |
| 20260904094029 | 70 | 220 | 0.0 | 2.0 | 0.00 | 0.18 | 0.18 | 95 | 1006.0 |
| 20260904093528 | 70 | 219 | 0.0 | 2.0 | 0.00 | 0.18 | 0.18 | 95 | 1006.0 |
| 20260904093028 | 70 | 233 | 0.0 | 0.0 | 0.00 | 0.18 | 0.18 | 95 | 1006.1 |
| 20260904092527 | 70 | 233 | 0.0 | 1.0 | 0.00 | 0.18 | 0.18 | 95 | 1006.1 |
| 20260904092027 | 70 | 233 | 0.0 | 1.0 | 0.00 | 0.18 | 0.18 | 95 | 1006.1 |
| 20260904091527 | 70 | 233 | 0.0 | 1.0 | 0.00 | 0.18 | 0.18 | 95 | 1006.1 |
| 20260904091127 | 70 | 233 | 0.0 | 1.0 | 0.00 | 0.18 | 0.18 | 95 | 1006.2 |
| 20260904090526 | 70 | 233 | 0.0 | 1.0 | 0.00 | 0.18 | 0.18 | 95 | 1006.3 |
| 20260904090025 | 70 | 213 | 0.0 | 1.0 | 0.00 | 0.18 | 0.18 | 95 | 1006.3 |
| 20260904085528 | 70 | 214 | 0.0 | 3.0 | 0.00 | 0.18 | 0.18 | 95 | 1006.3 |
| 20260904085025 | 70 | 214 | 0.0 | 4.0 | 0.00 | 0.18 | 0.18 | 95 | 1006.3 |
| 20260904084532 | 70 | 214 | 0.0 | 4.0 | 0.00 | 0.18 | 0.18 | 95 | 1006.2 |
| 20260904084024 | 71 | 202 | 0.0 | 2.0 | 0.00 | 0.18 | 0.18 | 95 | 1006.4 |
| 20260904083526 | 71 | 210 | 0.0 | 0.0 | 0.00 | 0.18 | 0.18 | 95 | 1006.2 |
| 20260904083023 | 71 | 210 | 0.0 | 0.0 | 0.00 | 0.18 | 0.18 | 95 | 1006.3 |
| 20260904082523 | 71 | 210 | 0.0 | 0.0 | 0.00 | 0.18 | 0.18 | 95 | 1006.4 |
| 20260904082023 | 71 | 233 | 0.0 | 0.0 | 0.00 | 0.18 | 0.18 | 94 | 1006.4 |
| 20260904081522 | 71 | 233 | 0.0 | 0.0 | 0.00 | 0.18 | 0.18 | 94 | 1006.5 |
| 20260904081022 | 71 | 233 | 0.0 | 1.0 | 0.00 | 0.18 | 0.18 | 95 | 1006.5 |
| 20260904080522 | 71 | 233 | 0.0 | 1.0 | 0.00 | 0.18 | 0.18 | 94 | 1006.4 |
| 20260904080030 | 71 | 234 | 0.0 | 0.0 | 0.00 | 0.18 | 0.18 | 95 | 1006.6 |
| 20260904075521 | 71 | 234 | 0.0 | 0.0 | 0.00 | 0.18 | 0.18 | 94 | 1006.3 |
| 20260904075021 | 71 | 234 | 0.0 | 0.0 | 0.00 | 0.18 | 0.18 | 94 | 1006.2 |
| 20260904074521 | 71 | 234 | 0.0 | 0.0 | 0.00 | 0.18 | 0.18 | 94 | 1006.1 |
| 20260904074022 | 71 | 234 | 0.0 | 0.0 | 0.00 | 0.18 | 0.18 | 94 | 1006.1 |
| 20260904073520 | 71 | 234 | 0.0 | 1.0 | 0.00 | 0.18 | 0.18 | 94 | 1006.0 |
| 20260904073020 | 71 | 234 | 0.0 | 1.0 | 0.00 | 0.18 | 0.18 | 94 | 1005.9 |
| 20260904072519 | 71 | 234 | 0.0 | 0.0 | 0.00 | 0.18 | 0.18 | 94 | 1005.9 |
| 20260904072019 | 71 | 234 | 0.0 | 1.0 | 0.00 | 0.18 | 0.18 | 94 | 1005.9 |
| 20260904071518 | 71 | 233 | 0.0 | 1.0 | 0.00 | 0.18 | 0.18 | 94 | 1005.9 |
| 20260904071019 | 71 | 233 | 0.0 | 1.0 | 0.00 | 0.18 | 0.18 | 94 | 1005.8 |
| 20260904070519 | 71 | 233 | 0.0 | 1.0 | 0.00 | 0.18 | 0.18 | 94 | 1005.7 |
| 20260904070019 | 71 | 233 | 0.0 | 1.0 | 0.00 | 0.18 | 0.18 | 94 | 1005.6 |
| 20260904065517 | 71 | 233 | 0.0 | 3.0 | 0.00 | 0.18 | 0.18 | 94 | 1005.6 |
| 20260904065017 | 71 | 228 | 1.0 | 3.0 | 0.00 | 0.18 | 0.18 | 94 | 1005.6 |
| 20260904064524 | 71 | 200 | 0.0 | 1.0 | 0.00 | 0.18 | 0.18 | 94 | 1005.5 |
| 20260904064016 | 71 | 232 | 0.0 | 1.0 | 0.00 | 0.18 | 0.18 | 94 | 1005.6 |
| 20260904063517 | 71 | 236 | 0.0 | 1.0 | 0.00 | 0.18 | 0.18 | 93 | 1005.7 |
| 20260904063021 | 71 | 235 | 0.0 | 0.0 | 0.00 | 0.18 | 0.18 | 93 | 1005.6 |
| 20260904062515 | 71 | 235 | 0.0 | 1.0 | 0.00 | 0.18 | 0.18 | 93 | 1005.6 |
| 20260904062014 | 71 | 235 | 0.0 | 1.0 | 0.00 | 0.18 | 0.18 | 93 | 1005.7 |
| 20260904061514 | 71 | 139 | 0.0 | 0.0 | 0.01 | 0.18 | 0.18 | 93 | 1005.6 |
| 20260904061013 | 72 | 139 | 0.0 | 1.0 | 0.06 | 0.18 | 0.18 | 93 | 1006.0 |
| 20260904060514 | 72 | 139 | 0.0 | 2.0 | 0.12 | 0.18 | 0.18 | 93 | 1006.0 |
| 20260904060012 | 72 | 205 | 0.0 | 2.0 | 0.16 | 0.18 | 0.18 | 93 | 1006.0 |
| 20260904055511 | 72 | 222 | 0.0 | 6.0 | 0.16 | 0.18 | 0.18 | 93 | 1005.9 |
| 20260904055010 | 72 | 209 | 2.0 | 6.0 | 0.18 | 0.18 | 0.18 | 93 | 1006.5 |
| 20260904054512 | 72 | 179 | 2.0 | 6.0 | 0.18 | 0.18 | 0.18 | 93 | 1006.7 |
| 20260904054013 | 72 | 162 | 2.0 | 4.0 | 0.18 | 0.18 | 0.18 | 92 | 1006.7 |
| 20260904053513 | 72 | 220 | 2.0 | 4.0 | 0.18 | 0.18 | 0.18 | 92 | 1006.9 |
| 20260904053016 | 72 | 6 | 0.0 | 2.0 | 0.18 | 0.18 | 0.18 | 91 | 1006.8 |
| 20260904052511 | 72 | 232 | 0.0 | 6.0 | 0.18 | 0.18 | 0.18 | 91 | 1007.0 |
| 20260904052006 | 72 | 232 | 2.0 | 6.0 | 0.18 | 0.18 | 0.18 | 90 | 1007.8 |
| 20260904051505 | 73 | 158 | 0.0 | 8.0 | 0.17 | 0.17 | 0.17 | 90 | 1007.9 |
| 20260904051003 | 73 | 264 | 2.0 | 12.0 | 0.10 | 0.10 | 0.10 | 88 | 1008.3 |
| 20260904050502 | 74 | 37 | 2.0 | 17.0 | 0.03 | 0.03 | 0.03 | 87 | 1008.2 |
| 20260904045559 | 75 | 298 | 5.0 | 16.0 | 0.02 | 0.02 | 0.02 | 85 | 1008.7 |
| 20260904045058 | 77 | 321 | 6.0 | 16.0 | 0.00 | 0.00 | 0.00 | 83 | 1008.8 |
| 20260904044557 | 78 | 290 | 6.0 | 18.0 | 0.00 | 0.00 | 0.00 | 81 | 1008.6 |
| 20260904044056 | 79 | 293 | 5.0 | 27.0 | 0.00 | 0.00 | 0.00 | 81 | 1008.5 |
| 20260904043552 | 80 | 23 | 8.0 | 20.0 | 0.00 | 0.00 | 0.00 | 81 | 1007.9 |
| 20260904043104 | 81 | 329 | 9.0 | 19.0 | 0.00 | 0.00 | 0.00 | 85 | 1007.9 |
| 20260904042554 | 82 | 321 | 3.0 | 8.0 | 0.00 | 0.00 | 0.00 | 88 | 1007.5 |
| 20260904042049 | 82 | 321 | 1.0 | 3.0 | 0.00 | 0.00 | 0.00 | 88 | 1006.7 |
| 20260904041549 | 82 | 260 | 0.0 | 2.0 | 0.00 | 0.00 | 0.00 | 88 | 1006.6 |
| 20260904041048 | 81 | 288 | 0.0 | 2.0 | 0.00 | 0.00 | 0.00 | 89 | 1006.7 |
| 20260904040546 | 81 | 285 | 0.0 | 2.0 | 0.00 | 0.00 | 0.00 | 89 | 1006.7 |
| 20260904040045 | 81 | 284 | 0.0 | 3.0 | 0.00 | 0.00 | 0.00 | 89 | 1006.9 |
| 20260904035545 | 81 | 293 | 1.0 | 3.0 | 0.00 | 0.00 | 0.00 | 89 | 1006.6 |
| 20260904035043 | 81 | 302 | 0.0 | 2.0 | 0.00 | 0.00 | 0.00 | 89 | 1006.5 |
| 20260904034544 | 81 | 295 | 0.0 | 2.0 | 0.00 | 0.00 | 0.00 | 90 | 1006.4 |
| 20260904034045 | 81 | 307 | 0.0 | 2.0 | 0.00 | 0.00 | 0.00 | 90 | 1006.2 |
| 20260904033544 | 81 | 281 | 0.0 | 1.0 | 0.00 | 0.00 | 0.00 | 90 | 1006.1 |
| 20260904033043 | 81 | 292 | 0.0 | 1.0 | 0.00 | 0.00 | 0.00 | 90 | 1006.0 |
| 20260904032543 | 81 | 310 | 0.0 | 0.0 | 0.00 | 0.00 | 0.00 | 90 | 1005.9 |
| 20260904032043 | 81 | 310 | 0.0 | 1.0 | 0.00 | 0.00 | 0.00 | 90 | 1005.9 |
| 20260904031543 | 81 | 310 | 0.0 | 1.0 | 0.00 | 0.00 | 0.00 | 90 | 1005.9 |
| 20260904031042 | 81 | 59 | 0.0 | 1.0 | 0.00 | 0.00 | 0.00 | 90 | 1006.0 |
| 20260904030542 | 81 | 70 | 0.0 | 3.0 | 0.00 | 0.00 | 0.00 | 90 | 1006.1 |
| 20260904030042 | 81 | 7 | 0.0 | 3.0 | 0.00 | 0.00 | 0.00 | 89 | 1006.2 |
| 20260904025542 | 81 | 248 | 0.0 | 1.0 | 0.00 | 0.00 | 0.00 | 89 | 1006.2 |
| 20260904025043 | 81 | 239 | 0.0 | 0.0 | 0.00 | 0.00 | 0.00 | 89 | 1006.3 |
| 20260904024542 | 81 | 239 | 0.0 | 1.0 | 0.00 | 0.00 | 0.00 | 89 | 1006.1 |
| 20260904024041 | 81 | 239 | 0.0 | 1.0 | 0.00 | 0.00 | 0.00 | 89 | 1006.2 |
| 20260904023540 | 82 | 239 | 0.0 | 1.0 | 0.00 | 0.00 | 0.00 | 89 | 1006.3 |
| 20260904023041 | 82 | 239 | 0.0 | 1.0 | 0.00 | 0.00 | 0.00 | 89 | 1006.4 |
| 20260904022541 | 82 | 239 | 0.0 | 1.0 | 0.00 | 0.00 | 0.00 | 89 | 1006.4 |
| 20260904022041 | 82 | 239 | 0.0 | 1.0 | 0.00 | 0.00 | 0.00 | 89 | 1006.5 |
| 20260904021549 | 82 | 232 | 0.0 | 1.0 | 0.00 | 0.00 | 0.00 | 88 | 1006.3 |
| 20260904021041 | 82 | 235 | 0.0 | 1.0 | 0.00 | 0.00 | 0.00 | 88 | 1006.6 |
| 20260904020545 | 82 | 233 | 0.0 | 1.0 | 0.00 | 0.00 | 0.00 | 88 | 1006.6 |
| 20260904020041 | 82 | 207 | 0.0 | 1.0 | 0.00 | 0.00 | 0.00 | 88 | 1006.7 |
| 20260904015540 | 82 | 207 | 0.0 | 1.0 | 0.00 | 0.00 | 0.00 | 88 | 1006.7 |
| 20260904015041 | 82 | 205 | 0.0 | 2.0 | 0.00 | 0.00 | 0.00 | 87 | 1006.6 |
| 20260904014541 | 82 | 208 | 0.0 | 2.0 | 0.00 | 0.00 | 0.00 | 87 | 1006.5 |
| 20260904014041 | 82 | 200 | 0.0 | 2.0 | 0.00 | 0.00 | 0.00 | 87 | 1006.3 |
| 20260904013541 | 82 | 189 | 0.0 | 3.0 | 0.00 | 0.00 | 0.00 | 87 | 1006.5 |
| 20260904013039 | 82 | 200 | 0.0 | 3.0 | 0.00 | 0.00 | 0.00 | 87 | 1006.5 |
| 20260904012540 | 82 | 202 | 0.0 | 1.0 | 0.00 | 0.00 | 0.00 | 87 | 1006.5 |
| 20260904012039 | 82 | 201 | 0.0 | 1.0 | 0.00 | 0.00 | 0.00 | 87 | 1006.6 |
| 20260904011550 | 82 | 206 | 0.0 | 1.0 | 0.00 | 0.00 | 0.00 | 87 | 1006.7 |
| 20260904011039 | 82 | 198 | 0.0 | 1.0 | 0.00 | 0.00 | 0.00 | 87 | 1006.7 |
| 20260904010539 | 82 | 215 | 0.0 | 1.0 | 0.00 | 0.00 | 0.00 | 87 | 1006.7 |
| 20260904010039 | 82 | 216 | 0.0 | 0.0 | 0.00 | 0.00 | 0.00 | 86 | 1006.9 |
| 20260904005539 | 82 | 215 | 0.0 | 0.0 | 0.00 | 0.00 | 0.00 | 86 | 1007.1 |
| 20260904005039 | 82 | 216 | 0.0 | 0.0 | 0.00 | 0.00 | 0.00 | 86 | 1007.0 |
| 20260904004538 | 83 | 215 | 0.0 | 1.0 | 0.00 | 0.00 | 0.00 | 86 | 1007.2 |
| 20260904004038 | 83 | 216 | 0.0 | 1.0 | 0.00 | 0.00 | 0.00 | 85 | 1007.2 |
| 20260904003537 | 83 | 215 | 0.0 | 0.0 | 0.00 | 0.00 | 0.00 | 85 | 1007.3 |
| 20260904003038 | 83 | 215 | 0.0 | 0.0 | 0.00 | 0.00 | 0.00 | 84 | 1007.2 |
| 20260904002538 | 83 | 216 | 0.0 | 0.0 | 0.00 | 0.00 | 0.00 | 84 | 1007.0 |
| 20260904002038 | 83 | 216 | 0.0 | 0.0 | 0.00 | 0.00 | 0.00 | 84 | 1007.1 |
| 20260904001537 | 84 | 215 | 0.0 | 0.0 | 0.00 | 0.00 | 0.00 | 84 | 1007.1 |
| 20260904001037 | 84 | 216 | 0.0 | 0.0 | 0.00 | 0.00 | 0.00 | 83 | 1007.1 |
| 20260904000536 | 84 | 216 | 0.0 | 0.0 | 0.00 | 0.00 | 0.00 | 83 | 1007.0 |
| 20260904000039 | 84 | 215 | 0.0 | 1.0 | 0.00 | 0.00 | 0.00 | 82 | 1007.0 |
| 20260903235537 | 85 | 216 | 0.0 | 1.0 | 0.00 | 0.00 | 0.00 | 82 | 1006.9 |
| 20260903235037 | 85 | 216 | 0.0 | 1.0 | 0.00 | 0.00 | 0.00 | 81 | 1006.8 |
| 20260903234537 | 85 | 215 | 0.0 | 0.0 | 0.00 | 0.00 | 0.00 | 81 | 1006.5 |
| 20260903234036 | 85 | 231 | 0.0 | 0.0 | 0.00 | 0.00 | 0.00 | 80 | 1006.6 |
| 20260903233537 | 86 | 231 | 0.0 | 0.0 | 0.00 | 0.00 | 0.00 | 80 | 1006.7 |
| 20260903233035 | 86 | 231 | 0.0 | 0.0 | 0.00 | 0.00 | 0.00 | 79 | 1006.8 |
| 20260903232538 | 86 | 231 | 0.0 | 0.0 | 0.00 | 0.00 | 0.00 | 79 | 1006.7 |
| 20260903232035 | 87 | 231 | 0.0 | 0.0 | 0.00 | 0.00 | 0.00 | 78 | 1006.7 |
| 20260903231535 | 87 | 231 | 0.0 | 0.0 | 0.00 | 0.00 | 0.00 | 78 | 1006.6 |
| 20260903231034 | 87 | 231 | 0.0 | 1.0 | 0.00 | 0.00 | 0.00 | 77 | 1006.7 |
| 20260903230539 | 88 | 231 | 0.0 | 2.0 | 0.00 | 0.00 | 0.00 | 77 | 1006.5 |
| 20260903230038 | 88 | 231 | 0.0 | 4.0 | 0.00 | 0.00 | 0.00 | 76 | 1006.4 |
| 20260903225534 | 88 | 229 | 1.0 | 4.0 | 0.00 | 0.00 | 0.00 | 76 | 1006.4 |
| 20260903225034 | 88 | 182 | 1.0 | 3.0 | 0.00 | 0.00 | 0.00 | 75 | 1006.3 |
| 20260903224536 | 89 | 200 | 0.0 | 6.0 | 0.00 | 0.00 | 0.00 | 75 | 1006.4 |
| 20260903224034 | 89 | 245 | 2.0 | 6.0 | 0.00 | 0.00 | 0.00 | 74 | 1006.4 |
| 20260903223532 | 89 | 219 | 1.0 | 5.0 | 0.00 | 0.00 | 0.00 | 74 | 1006.4 |
| 20260903223031 | 89 | 233 | 1.0 | 4.0 | 0.00 | 0.00 | 0.00 | 74 | 1006.2 |
| 20260903222531 | 90 | 222 | 1.0 | 4.0 | 0.00 | 0.00 | 0.00 | 73 | 1006.1 |
| 20260903222031 | 90 | 235 | 2.0 | 5.0 | 0.00 | 0.00 | 0.00 | 72 | 1006.0 |
| 20260903221531 | 90 | 221 | 2.0 | 6.0 | 0.00 | 0.00 | 0.00 | 72 | 1006.1 |
| 20260903221030 | 90 | 203 | 2.0 | 6.0 | 0.00 | 0.00 | 0.00 | 72 | 1006.1 |
| 20260903220529 | 90 | 215 | 2.0 | 6.0 | 0.00 | 0.00 | 0.00 | 72 | 1006.0 |
| 20260903220050 | 90 | 234 | 3.0 | 6.0 | 0.00 | 0.00 | 0.00 | 71 | 1006.2 |
| 20260903215529 | 90 | 245 | 2.0 | 5.0 | 0.00 | 0.00 | 0.00 | 71 | 1006.1 |
| 20260903215027 | 90 | 197 | 2.0 | 6.0 | 0.00 | 0.00 | 0.00 | 71 | 1006.1 |
| 20260903214527 | 90 | 178 | 2.0 | 7.0 | 0.00 | 0.00 | 0.00 | 71 | 1006.2 |
| 20260903214027 | 90 | 216 | 2.0 | 5.0 | 0.00 | 0.00 | 0.00 | 71 | 1006.3 |
| 20260903213526 | 90 | 211 | 2.0 | 8.0 | 0.00 | 0.00 | 0.00 | 71 | 1006.2 |
| 20260903213027 | 90 | 238 | 4.0 | 8.0 | 0.00 | 0.00 | 0.00 | 71 | 1006.3 |
| 20260903212527 | 90 | 234 | 2.0 | 5.0 | 0.00 | 0.00 | 0.00 | 71 | 1006.3 |
| 20260903212024 | 90 | 236 | 3.0 | 7.0 | 0.00 | 0.00 | 0.00 | 72 | 1006.4 |
| 20260903211524 | 90 | 229 | 2.0 | 7.0 | 0.00 | 0.00 | 0.00 | 71 | 1006.4 |
| 20260903211022 | 90 | 260 | 2.0 | 7.0 | 0.00 | 0.00 | 0.00 | 71 | 1006.6 |
| 20260903210521 | 90 | 222 | 2.0 | 7.0 | 0.00 | 0.00 | 0.00 | 71 | 1006.6 |
| 20260903210026 | 90 | 49 | 2.0 | 6.0 | 0.00 | 0.00 | 0.00 | 70 | 1006.7 |
| 20260903205521 | 90 | 290 | 1.0 | 7.0 | 0.00 | 0.00 | 0.00 | 69 | 1006.7 |
| 20260903205020 | 90 | 217 | 4.0 | 7.0 | 0.00 | 0.00 | 0.00 | 69 | 1006.8 |
| 20260903204521 | 90 | 217 | 3.0 | 8.0 | 0.00 | 0.00 | 0.00 | 67 | 1006.8 |
| 20260903204020 | 91 | 226 | 0.0 | 6.0 | 0.00 | 0.00 | 0.00 | 68 | 1006.8 |
| 20260903203517 | 90 | 219 | 1.0 | 6.0 | 0.00 | 0.00 | 0.00 | 68 | 1006.9 |
| 20260903203017 | 90 | 235 | 1.0 | 7.0 | 0.00 | 0.00 | 0.00 | 70 | 1007.0 |
| 20260903202515 | 89 | 234 | 2.0 | 8.0 | 0.00 | 0.00 | 0.00 | 70 | 1007.1 |
| 20260903202019 | 89 | 231 | 4.0 | 8.0 | 0.00 | 0.00 | 0.00 | 70 | 1007.2 |
| 20260903201522 | 89 | 229 | 3.0 | 8.0 | 0.00 | 0.00 | 0.00 | 70 | 1007.2 |
| 20260903201014 | 89 | 238 | 3.0 | 7.0 | 0.00 | 0.00 | 0.00 | 70 | 1007.3 |
| 20260903200514 | 89 | 205 | 2.0 | 7.0 | 0.00 | 0.00 | 0.00 | 70 | 1007.5 |
| 20260903200014 | 89 | 230 | 4.0 | 7.0 | 0.00 | 0.00 | 0.00 | 70 | 1007.6 |
| 20260903195513 | 89 | 212 | 1.0 | 5.0 | 0.00 | 0.00 | 0.00 | 71 | 1007.5 |
| 20260903195013 | 88 | 236 | 1.0 | 5.0 | 0.00 | 0.00 | 0.00 | 70 | 1007.6 |
| 20260903194512 | 89 | 238 | 2.0 | 5.0 | 0.00 | 0.00 | 0.00 | 70 | 1007.6 |
| 20260903194014 | 89 | 243 | 0.0 | 6.0 | 0.00 | 0.00 | 0.00 | 71 | 1007.6 |
| 20260903193512 | 88 | 245 | 2.0 | 6.0 | 0.00 | 0.00 | 0.00 | 73 | 1007.9 |
| 20260903193011 | 88 | 233 | 1.0 | 5.0 | 0.00 | 0.00 | 0.00 | 73 | 1007.8 |
| 20260903192508 | 88 | 218 | 1.0 | 4.0 | 0.00 | 0.00 | 0.00 | 73 | 1008.0 |
| 20260903192008 | 88 | 336 | 1.0 | 4.0 | 0.00 | 0.00 | 0.00 | 74 | 1008.0 |
| 20260903191509 | 88 | 251 | 1.0 | 3.0 | 0.00 | 0.00 | 0.00 | 73 | 1008.0 |
| 20260903191010 | 88 | 215 | 0.0 | 5.0 | 0.00 | 0.00 | 0.00 | 74 | 1008.0 |
| 20260903190508 | 88 | 226 | 2.0 | 5.0 | 0.00 | 0.00 | 0.00 | 73 | 1007.9 |
| 20260903190007 | 88 | 246 | 0.0 | 5.0 | 0.00 | 0.00 | 0.00 | 74 | 1007.9 |
| 20260903185511 | 88 | 235 | 2.0 | 5.0 | 0.00 | 0.00 | 0.00 | 73 | 1008.0 |
| 20260903185006 | 88 | 229 | 0.0 | 3.0 | 0.00 | 0.00 | 0.00 | 73 | 1008.2 |
| 20260903184505 | 88 | 226 | 1.0 | 5.0 | 0.00 | 0.00 | 0.00 | 73 | 1008.2 |
| 20260903184008 | 88 | 219 | 1.0 | 5.0 | 0.00 | 0.00 | 0.00 | 73 | 1008.3 |
| 20260903183503 | 88 | 224 | 0.0 | 4.0 | 0.00 | 0.00 | 0.00 | 74 | 1008.2 |
| 20260903183002 | 87 | 203 | 0.0 | 4.0 | 0.00 | 0.00 | 0.00 | 74 | 1008.3 |
| 20260903182503 | 87 | 226 | 1.0 | 4.0 | 0.00 | 0.00 | 0.00 | 74 | 1008.5 |
| 20260903182000 | 87 | 328 | 0.0 | 2.0 | 0.00 | 0.00 | 0.00 | 74 | 1008.7 |
| 20260903181604 | 87 | 352 | 0.0 | 2.0 | 0.00 | 0.00 | 0.00 | 74 | 1008.7 |
| 20260903181100 | 87 | 217 | 0.0 | 4.0 | 0.00 | 0.00 | 0.00 | 74 | 1008.7 |
| 20260903180603 | 87 | 297 | 1.0 | 4.0 | 0.00 | 0.00 | 0.00 | 74 | 1008.8 |
| 20260903175602 | 87 | 69 | 0.0 | 4.0 | 0.00 | 0.00 | 0.00 | 75 | 1009.0 |
| 20260903175059 | 87 | 2 | 1.0 | 4.0 | 0.00 | 0.00 | 0.00 | 74 | 1009.0 |
| 20260903174559 | 87 | 70 | 0.0 | 5.0 | 0.00 | 0.00 | 0.00 | 75 | 1009.0 |
| 20260903174101 | 86 | 61 | 0.0 | 5.0 | 0.00 | 0.00 | 0.00 | 76 | 1009.1 |
| 20260903173558 | 86 | 297 | 1.0 | 6.0 | 0.00 | 0.00 | 0.00 | 75 | 1009.2 |
| 20260903173058 | 87 | 283 | 1.0 | 6.0 | 0.00 | 0.00 | 0.00 | 75 | 1009.3 |
| 20260903172557 | 87 | 254 | 1.0 | 6.0 | 0.00 | 0.00 | 0.00 | 75 | 1009.4 |
| 20260903172100 | 86 | 286 | 1.0 | 6.0 | 0.00 | 0.00 | 0.00 | 77 | 1009.6 |
| 20260903171602 | 85 | 45 | 0.0 | 5.0 | 0.00 | 0.00 | 0.00 | 77 | 1009.6 |
| 20260903171058 | 85 | 296 | 2.0 | 5.0 | 0.00 | 0.00 | 0.00 | 77 | 1009.7 |
| 20260903170553 | 85 | 328 | 2.0 | 5.0 | 0.00 | 0.00 | 0.00 | 77 | 1009.8 |
| 20260903170053 | 84 | 295 | 0.0 | 5.0 | 0.00 | 0.00 | 0.00 | 78 | 1009.8 |
| 20260903165553 | 84 | 348 | 1.0 | 5.0 | 0.00 | 0.00 | 0.00 | 77 | 1010.0 |
| 20260903165051 | 84 | 286 | 0.0 | 3.0 | 0.00 | 0.00 | 0.00 | 78 | 1009.9 |
| 20260903164552 | 84 | 283 | 0.0 | 3.0 | 0.00 | 0.00 | 0.00 | 77 | 1009.9 |
| 20260903164052 | 84 | 243 | 0.0 | 3.0 | 0.00 | 0.00 | 0.00 | 77 | 1009.7 |
| 20260903163552 | 84 | 253 | 0.0 | 2.0 | 0.00 | 0.00 | 0.00 | 77 | 1009.9 |
| 20260903163050 | 84 | 253 | 0.0 | 3.0 | 0.00 | 0.00 | 0.00 | 77 | 1009.8 |
| 20260903162552 | 84 | 231 | 0.0 | 3.0 | 0.00 | 0.00 | 0.00 | 78 | 1010.0 |
| 20260903162051 | 84 | 219 | 0.0 | 4.0 | 0.00 | 0.00 | 0.00 | 78 | 1010.0 |
| 20260903161549 | 84 | 219 | 0.0 | 2.0 | 0.00 | 0.00 | 0.00 | 80 | 1010.1 |
| 20260903161049 | 83 | 136 | 0.0 | 3.0 | 0.00 | 0.00 | 0.00 | 80 | 1010.3 |
| 20260903160547 | 83 | 44 | 0.0 | 3.0 | 0.00 | 0.00 | 0.00 | 80 | 1010.3 |
| 20260903160046 | 82 | 223 | 0.0 | 5.0 | 0.00 | 0.00 | 0.00 | 82 | 1010.3 |
| 20260903155544 | 81 | 234 | 2.0 | 5.0 | 0.00 | 0.00 | 0.00 | 82 | 1010.4 |
| 20260903155045 | 81 | 299 | 1.0 | 3.0 | 0.00 | 0.00 | 0.00 | 82 | 1010.3 |
| 20260903154543 | 80 | 223 | 0.0 | 4.0 | 0.00 | 0.00 | 0.00 | 85 | 1010.5 |
| 20260903154043 | 79 | 319 | 1.0 | 5.0 | 0.00 | 0.00 | 0.00 | 84 | 1010.6 |
| 20260903153542 | 79 | 314 | 1.0 | 5.0 | 0.00 | 0.00 | 0.00 | 85 | 1010.6 |
| 20260903153040 | 79 | 349 | 2.0 | 6.0 | 0.00 | 0.00 | 0.00 | 85 | 1010.6 |
| 20260903152541 | 79 | 295 | 2.0 | 6.0 | 0.00 | 0.00 | 0.00 | 86 | 1010.6 |
| 20260903152041 | 79 | 352 | 0.0 | 4.0 | 0.00 | 0.00 | 0.00 | 86 | 1010.6 |
| 20260903151539 | 78 | 316 | 1.0 | 4.0 | 0.00 | 0.00 | 0.00 | 87 | 1010.5 |
| 20260903151038 | 78 | 287 | 1.0 | 4.0 | 0.00 | 0.00 | 0.00 | 87 | 1010.4 |
| 20260903150537 | 78 | 316 | 1.0 | 4.0 | 0.00 | 0.00 | 0.00 | 87 | 1010.3 |
| 20260903150046 | 78 | 264 | 0.0 | 3.0 | 0.00 | 0.00 | 0.00 | 89 | 1010.2 |